User: anonymous
Location: Brno
(49.2000°N, 16.6330°E)
Time: 11:37:44
(UTC+02:00)
Language:

Cosmos 1459 Rocket - Orbit

View from above orbital plane
View from above orbital plane
View from above satellite
View from above satellite

Ground track
Ground track

The orbit data is extracted from the following two-line orbital elements,

1 14059U 83042B   14110.22170553  .00000072  00000-0  56245-4 0  3122
2 14059 082.9745 198.3417 0041241 266.7333 121.9324 13.78441800556779
Epoch (UTC): 20 April 2014 05:19:15
Eccentricity: 0.0041241
inclination: 82.9745°
perigee height: 939 km
apogee height: 1000 km
right ascension of ascending node: 198.3417°
argument of perigee: 266.7333°
revolutions per day: 13.78441800
mean anomaly at epoch: 121.9324°
orbit number at epoch: 55677

The dashed part of the orbit path shows where the satellite is in the earth's shadow,  

DLR